Погода в Сьюдад Бенито Хуарес

Мексика     25°39′25″N   100°08′05″W
темп.,
°C
ветер,
м/с
пор.,
м/с
влажн.,
%
обл.,
%
осадки,
мм/ч
давл.,
гПа
погр.,
м
17 апреля, сб
сб1701:00+25в2370100 1.5 1008508
04:00+23с458299 2.9 1008444
07:00+18с4883100 7.4 1013722
10:00+16с5879100 0.7 1017757
13:00+15с4668100 0.9 1017716
16:00+16с4563100 0.0 1015866
19:00+16с3565100 0.0 1016905
22:00+16ссв135798 0.1 1017743
18 апреля, вс
вс1801:00+16вюв1160100 0.1 1018629
04:00+16всв116289 0.0 1017661
07:00+15ссв235789 0.1 1018715
10:00+16с225086 0.0 1020966
13:00+20ссв223840 0.0 10181483
16:00+22вюв323652 0.0 10141826
19:00+20вюв654134 0.0 10151267
22:00+16юв574827 0.0 1018828
19 апреля, пн
пн1901:00+15юв35551 0.0 1019486
04:00+14юв12600 0.0 1017288
07:00+13юв12610 0.0 1018213
10:00+16в12485 0.0 1018919
13:00+20в22365 0.0 10161447
16:00+23вюв43335 0.0 10121554
19:00+22вюв443940 0.0 10121517
22:00+18вюв3558100 0.0 1015663
20 апреля, вт
вт2001:00+17юв3565100 0.0 1016559
04:00+16юв2473100 0.0 1015292
07:00+15св0179100 0.0 1015171
10:00+19ссв11614 0.0 1016552
13:00+25в21400 0.0 10141071
16:00+29в22300 0.0 10121575
19:00+28вюв65340 0.0 10121778
22:00+23вюв46495 0.0 1015492
21 апреля, ср
ср2101:00+21вюв476316 0.0 1016640
04:00+19в348372 0.0 1016377
07:00+19в248698 0.1 1018451
10:00+19вюв4687100 1.0 1019567
13:00+19в4685100 2.3 1019768
16:00+18вюв2479100 1.1 1017642
19:00+19ююв3577100 1.3 1015327
22:00+19вюв3681100 0.2 1017531